Location: Drocourt
(49.0571°N, 1.7669°E)
Time: 13:37:51
(UTC+00:00)

Vanguard 2 Rocket - Pass Details

Date: 14 April 2024
Orbit: 556 x 3304 km, 32.9° (Epoch: 22 May)

Event Time Altitude Azimuth Distance (km) Brightness Sun altitude
Rises 21:17:03 0° 207° (SSW) 6,699 11.1 -21.9°
Reaches altitude 10° 21:22:17 10° 197° (SSW) 5,955 10.7 -22.5°
Enters shadow 21:33:59 27° 160° (SSE) 4,914 10.0 -23.7°
Exits shadow 21:48:07 17° 106° (ESE) 5,439 10.4 -25.0°
Drops below altitude 10° 21:51:33 10° 98° (E) 5,847 10.6 -25.3°
Sets 21:56:32 0° 88° (E) 6,570 11.0 -25.8°
